Airfield :
LOGIN :

Register | Disclaimer

   EN    FR    IT 

 










Legend :    VFR   Marginal VFR   IFR   Intensive IFR   Very Intensive IFR
Visi :
Ceiling :
>= 8 km
>= 3000ft
5 to 8 km
1000 to 3000 ft
1500m to 5 km
500 to 1000 ft
800 to 1500m
200 to 500 ft
< 800m
< 200 ft
Symbols :   Thunderstorms  Fog  Heavy snow  Heavy precipitations  Wind > 20 kt
SIGMETs :     Misc.  Thunderstorms  Icing  Turbulence  Mountain Waves  Volcanic Ashes







- Airport Elevation : 15 ft
- IATA code : BHD
- Download approach charts


EGAC - George Best Belfast City

CURRENT METAR :
  • 211720Z 22009KT 9999 FEW030 15/06 Q1013

EXPIRED METARs :
  • 211650Z 22008KT 9999 FEW030 15/07 Q1013
  • 211620Z 22008KT 9999 FEW025 15/06 Q1012
  • 211550Z 23007KT 9999 FEW025 16/06 Q1012
  • 211520Z 25008KT 200V270 9999 FEW024 15/07 Q1012
  • 211450Z 24006KT 210V280 9999 FEW025 16/07 Q1012

TAF TAF EGAC
Valid from the 21 at 15:00 until the 21 at 21:00 UTC


211356Z 2115/2121 24008KT 9999 SCT030
PROB30
TEMPO 2115/2119 5000 +SHRA
ATIS : +44 02890 935 124
No reported NOTAMs for that airfield.



MET'MAP, your aeronautical weather chart ! - Copyright ORBIFLY December 2007 - Disclaimer

ORBIFLY MET'MAP TEAM :

Programming & Development : Alexandra Zaïnal
Concept & Development : Baudouin d'Aumeries
Co-Development & Prog : Marc-Olivier Méhu
Technical & hardware support : Manuel Goepfert

Contact : metmap@orbifly.com




SOURCES & CREDITS :

   NOAA